This is the latest recevied weather packets stored in our database for station/object N8GD. If no packets are shown the sender has not sent any weather packets the latest 10 day(s).
| Time | Temp. | Humidity | Pressure | Rain* | Wind** | Luminosity | Snow |
|---|---|---|---|---|---|---|---|
| 1777406863 | 21.67° C | 65% | 1012.2 hPa | 0 mm | - | - | - |
| 1777405962 | 21.67° C | 64% | 1012.5 hPa | 0 mm | - | - | - |
| 1777405904 | 21.67° C | 65% | 1012.5 hPa | 0 mm | - | - | - |
| 1777405062 | 21.67° C | 67% | 1012.5 hPa | 0 mm | - | - | - |
| 1777404162 | 21.67° C | 69% | 1012.6 hPa | 0 mm | - | - | - |
| 1777404104 | 21.67° C | 70% | 1012.6 hPa | 0 mm | - | - | - |
| 1777403262 | 20.56° C | 73% | 1012.8 hPa | 0 mm | - | - | - |
| 1777403203 | 20.56° C | 73% | 1012.8 hPa | 0 mm | - | - | - |
| 1777402362 | 20.56° C | 76% | 1013 hPa | 0 mm | - | - | - |
| 1777402303 | 20.56° C | 74% | 1013 hPa | 0 mm | - | - | - |
| 1777401462 | 20° C | 75% | 1012.8 hPa | 0 mm | - | - | - |
| 1777400562 | 19.44° C | 78% | 1013 hPa | 0 mm | - | - | - |
| 1777400506 | 19.44° C | 78% | 1013 hPa | 0 mm | - | - | - |
| 1777399662 | 18.89° C | 81% | 1013.1 hPa | 0 mm | - | - | - |
| 1777398761 | 18.33° C | 83% | 1013.1 hPa | 0 mm | - | - | - |
| 1777397862 | 18.33° C | 83% | 1013.1 hPa | 0 mm | - | - | - |
| 1777397851 | 18.33° C | 83% | 1013.1 hPa | 0 mm | - | - | - |
| 1777396963 | 17.78° C | 86% | 1013.1 hPa | 0 mm | - | - | - |
| 1777396908 | 17.78° C | 86% | 1013.1 hPa | 0 mm | - | - | - |
| 1777396061 | 16.67° C | 87% | 1013.1 hPa | 0 mm | - | - | - |
| 1777395163 | 16.11° C | 89% | 1013.1 hPa | 0 mm | - | - | - |
| 1777394262 | 15.56° C | 90% | 1013.2 hPa | 0 mm | - | - | - |
| 1777393361 | 15° C | 90% | 1013.2 hPa | 0 mm | - | - | - |
| 1777392462 | 15° C | 90% | 1013.1 hPa | 0 mm | - | - | - |
| 1777392411 | 15° C | 90% | 1013.1 hPa | 0 mm | - | - | - |
* Rain latest hour (hover to see other rain measurements)
** Current wind speed in m/s (hover to see current wind gust speed)